Simultaneous Nadir Overpasses (SNOs) Predictions

Prediction of SNOs between FY3D and AQUA Satellite Orbit:

Table of predicted SNOs for the next 14.0 days since TLE Epoch: 5/28/2022
Index Date (FY3D) Time (FY3D) Lat,Lon (FY3D) SZA (FY3D ) Date (AQUA) Time (AQUA) Lat,Lon (AQUA) SZA (AQUA ) Distance(km) Time Diff (sec)
1 05/29/2022 14:44:29 75.60, -50.84 54.05 05/29/2022 14:45:13 75.60, -50.90 54.04 1.64 44
2 05/29/2022 15:34:54 -74.63, 119.34 127.04 05/29/2022 15:34:19 -74.62, 119.37 127.04 1.16 35
3 06/01/2022 06:11:27 -75.28,-101.59 126.70 06/01/2022 06:11:41 -75.28,-101.62 126.69 1.05 14
4 06/01/2022 07:01:50 74.18, 68.79 52.10 06/01/2022 07:00:46 74.17, 68.83 52.10 1.51 64
5 06/03/2022 20:48:03 -76.05, 36.84 126.14 06/03/2022 20:49:05 -76.05, 36.85 126.16 0.46 62
6 06/03/2022 21:38:28 75.08,-152.75 52.76 06/03/2022 21:38:12 75.07,-152.69 52.75 2.04 16
7 06/06/2022 12:15:00 75.69, -13.68 53.16 06/06/2022 12:15:32 75.68, -13.67 53.15 0.41 32
8 06/06/2022 13:05:17 -74.34, 157.57 128.34 06/06/2022 13:04:31 -74.35, 157.52 128.33 1.69 46
9 06/09/2022 02:55:43 80.27, 47.41 67.17 06/09/2022 02:56:55 80.98, 45.70 67.36 85.67 72
10 06/09/2022 03:41:55 -75.29, -64.19 127.53 06/09/2022 03:41:56 -75.29, -64.18 127.53 0.16 1



Historial Predications of SNOs between FY3D and AQUA
